EW7526 Weather Reports


Display with metric or nautical units.
time (UTC)temp
F
wind
direction
speed
MPH
gust
MPH
rain 1hr
in
rain 24hr
in
rain mn
in
humidity
%
barometer
mb
20190626103609 74 211 0.0 0.0 0.00 0.00 0.00 20 1010.6
20190626103109 74 212 0.0 0.0 0.00 0.00 0.00 20 1010.6
20190626102609 74 212 0.0 0.0 0.00 0.00 0.00 20 1010.6
20190626102110 74 212 0.0 0.0 0.00 0.00 0.00 19 1010.6
20190626101609 73 211 0.0 0.0 0.00 0.00 0.00 20 1010.6
20190626101109 74 212 0.0 0.0 0.00 0.00 0.00 20 1010.6
20190626100609 74 211 0.0 1.0 0.00 0.00 0.00 20 1010.6
20190626100109 75 211 0.0 1.0 0.00 0.00 0.00 19 1010.6
20190626095610 75 212 0.0 0.0 0.00 0.00 0.00 19 1010.6
20190626095110 75 212 0.0 1.0 0.00 0.00 0.00 20 1010.6
20190626094609 74 212 0.0 0.0 0.00 0.00 0.00 19 1010.6
20190626094109 74 212 0.0 0.0 0.00 0.00 0.00 19 1010.6
20190626093609 74 212 0.0 0.0 0.00 0.00 0.00 19 1010.6
20190626093109 74 212 0.0 0.0 0.00 0.00 0.00 20 1010.6
20190626092609 74 211 0.0 0.0 0.00 0.00 0.00 20 1010.6
20190626092111 75 212 0.0 0.0 0.00 0.00 0.00 19 1010.6
20190626091609 76 212 0.0 0.0 0.00 0.00 0.00 19 1010.6
20190626091109 76 212 0.0 0.0 0.00 0.00 0.00 19 1010.6
20190626090609 76 212 0.0 0.0 0.00 0.00 0.00 18 1010.6
20190626090109 76 212 0.0 0.0 0.00 0.00 0.00 19 1010.6
20190626085609 76 212 0.0 0.0 0.00 0.00 0.00 19 1010.6
20190626085110 77 212 0.0 0.0 0.00 0.00 0.00 19 1010.6
20190626084609 77 212 0.0 0.0 0.00 0.00 0.00 18 1010.6
20190626084109 78 212 0.0 0.0 0.00 0.00 0.00 17 1010.6
20190626083609 79 212 0.0 0.0 0.00 0.00 0.00 17 1010.6
20190626083109 79 212 0.0 0.0 0.00 0.00 0.00 16 1010.6
20190626082609 80 212 0.0 0.0 0.00 0.00 0.00 16 1010.6
20190626082111 80 212 0.0 1.0 0.00 0.00 0.00 16 1010.6
20190626081609 81 223 0.0 0.0 0.00 0.00 0.00 16 1010.6
20190626081108 81 213 1.0 3.0 0.00 0.00 0.00 16 1010.6
20190626080612 80 147 0.0 1.0 0.00 0.00 0.00 17 1010.6
20190626080110 80 134 0.0 1.0 0.00 0.00 0.00 17 1010.6
20190626075613 80 167 0.0 0.0 0.00 0.00 0.00 17 1010.6
20190626074108 80 197 1.0 1.0 0.00 0.00 0.00 17 1010.6
20190626073609 79 128 0.0 1.0 0.00 0.00 0.00 18 1010.6
20190626073108 79 127 0.0 1.0 0.00 0.00 0.00 18 1010.6
20190626072609 79 127 0.0 0.0 0.00 0.00 0.00 18 1010.6
20190626072110 79 128 0.0 1.0 0.00 0.00 0.00 17 1010.6
20190626071114 81 128 0.0 1.0 0.00 0.00 0.00 17 1010.6
20190626070610 82 129 1.0 1.0 0.00 0.00 0.00 17 1010.6
20190626070109 81 157 0.0 1.0 0.00 0.00 0.00 17 1010.6
20190626065609 82 163 0.0 0.0 0.00 0.00 0.00 16 1010.6
20190626065110 82 163 0.0 0.0 0.00 0.00 0.00 16 1010.6
20190626064609 82 163 1.0 1.0 0.00 0.00 0.00 16 1010.6
20190626064109 82 39 0.0 1.0 0.00 0.00 0.00 16 1010.6
20190626063108 82 11 0.0 0.0 0.00 0.00 0.00 15 1010.6
20190626062609 83 11 0.0 1.0 0.00 0.00 0.00 15 1010.6
20190626062110 82 14 1.0 2.0 0.00 0.00 0.00 14 1010.6
20190626061608 83 24 1.0 2.0 0.00 0.00 0.00 14 1010.6
20190626061109 83 19 1.0 2.0 0.00 0.00 0.00 14 1010.6
20190626060608 83 12 0.0 0.0 0.00 0.00 0.00 14 1010.6
20190626060108 83 19 0.0 1.0 0.00 0.00 0.00 14 1010.6
20190626055609 83 100 0.0 0.0 0.00 0.00 0.00 14 1010.6
20190626055110 83 156 0.0 0.0 0.00 0.00 0.00 14 1010.6
20190626054609 84 156 0.0 0.0 0.00 0.00 0.00 13 1010.6
20190626054109 84 156 0.0 2.0 0.00 0.00 0.00 13 1010.6
20190626053609 85 213 0.0 0.0 0.00 0.00 0.00 13 1010.6
20190626053109 85 211 0.0 1.0 0.00 0.00 0.00 12 1010.6
20190626052609 85 233 0.0 1.0 0.00 0.00 0.00 12 1010.6
20190626052110 85 202 0.0 0.0 0.00 0.00 0.00 12 1010.6
20190626051608 85 217 0.0 2.0 0.00 0.00 0.00 12 1010.6
20190626051108 85 214 1.0 3.0 0.00 0.00 0.00 12 1010.6
20190626050608 85 195 1.0 2.0 0.00 0.00 0.00 12 1010.6
20190626050108 84 205 1.0 1.0 0.00 0.00 0.00 12 1010.6
20190626045609 84 186 0.0 0.0 0.00 0.00 0.00 11 1010.6
20190626045110 85 213 0.0 2.0 0.00 0.00 0.00 12 1010.6
20190626044609 85 210 0.0 0.0 0.00 0.00 0.00 11 1010.6
20190626044109 86 210 0.0 0.0 0.00 0.00 0.00 10 1010.6
20190626043608 86 210 0.0 0.0 0.00 0.00 0.00 10 1010.6
20190626043108 87 210 0.0 1.0 0.00 0.00 0.00 10 1010.6
20190626042608 88 214 0.0 1.0 0.00 0.00 0.00 10 1010.6
20190626042110 88 212 0.0 2.0 0.00 0.00 0.00 10 1010.6
20190626041609 88 207 1.0 3.0 0.00 0.00 0.00 10 1010.6
20190626041108 88 203 1.0 3.0 0.00 0.00 0.00 10 1010.6
20190626040608 89 186 0.0 2.0 0.00 0.00 0.00 10 1010.6
20190626040109 89 185 0.0 3.0 0.00 0.00 0.00 10 1010.6
20190626035609 89 149 0.0 2.0 0.00 0.00 0.00 9 1010.6
20190626035110 89 226 0.0 1.0 0.00 0.00 0.00 9 1010.6
20190626034608 89 290 1.0 2.0 0.00 0.00 0.00 9 1010.6
20190626034110 90 178 0.0 1.0 0.00 0.00 0.00 10 1010.6
20190626033608 90 217 0.0 2.0 0.00 0.00 0.00 10 1010.6
20190626033108 90 352 1.0 2.0 0.00 0.00 0.00 9 1010.6
20190626032608 90 204 0.0 2.0 0.00 0.00 0.00 10 1010.6
20190626032110 91 183 1.0 2.0 0.00 0.00 0.00 9 1010.6
20190626031608 91 200 1.0 3.0 0.00 0.00 0.00 10 1010.6
20190626031108 91 151 1.0 2.0 0.00 0.00 0.00 10 1010.6
20190626030608 92 149 0.0 1.0 0.00 0.00 0.00 10 1010.6
20190626030109 92 202 2.0 6.0 0.00 0.00 0.00 10 1010.6
20190626025608 92 175 1.0 5.0 0.00 0.00 0.00 10 1010.6
20190626025109 93 217 2.0 3.0 0.00 0.00 0.00 10 1010.6
20190626024608 93 203 1.0 3.0 0.00 0.00 0.00 10 1010.6
20190626024108 93 206 2.0 3.0 0.00 0.00 0.00 10 1010.6
20190626023608 94 215 2.0 3.0 0.00 0.00 0.00 9 1010.6
20190626023108 94 216 2.0 3.0 0.00 0.00 0.00 9 1010.6
20190626022608 94 206 1.0 3.0 0.00 0.00 0.00 9 1010.6
20190626022109 95 223 0.0 5.0 0.00 0.00 0.00 9 1010.6
20190626021608 95 203 2.0 5.0 0.00 0.00 0.00 9 1010.6
20190626021108 95 197 2.0 7.0 0.00 0.00 0.00 9 1010.6
20190626020613 95 238 2.0 5.0 0.00 0.00 0.00 9 1010.6
20190626020118 95 179 5.0 6.0 0.00 0.00 0.00 9 1010.6
20190626015608 96 223 4.0 5.0 0.00 0.00 0.00 9 1010.6
20190626015109 96 223 2.0 5.0 0.00 0.00 0.00 9 1010.6
20190626014607 96 195 3.0 7.0 0.00 0.00 0.00 9 1010.6
20190626014108 96 139 2.0 3.0 0.00 0.00 0.00 9 1010.6
20190626013609 96 168 2.0 7.0 0.00 0.00 0.00 8 1010.6
20190626013108 96 165 3.0 5.0 0.00 0.00 0.00 8 1010.6
20190626012608 96 131 0.0 1.0 0.00 0.00 0.00 8 1010.6
20190626012109 96 206 0.0 3.0 0.00 0.00 0.00 8 1010.6
20190626011608 96 199 3.0 5.0 0.00 0.00 0.00 8 1010.6
20190626011108 96 209 1.0 5.0 0.00 0.00 0.00 8 1010.6
20190626010608 96 198 2.0 6.0 0.00 0.00 0.00 8 1010.6
20190626010108 96 210 5.0 6.0 0.00 0.00 0.00 8 1010.6
20190626005608 96 215 2.0 6.0 0.00 0.00 0.00 8 1010.6
20190626005109 97 260 6.0 6.0 0.00 0.00 0.00 8 1010.6
20190626004608 97 176 2.0 3.0 0.00 0.00 0.00 8 1010.6
20190626004108 97 141 2.0 6.0 0.00 0.00 0.00 9 1010.6
20190626003607 97 191 3.0 6.0 0.00 0.00 0.00 8 1010.6
20190626003107 97 194 1.0 5.0 0.00 0.00 0.00 9 1010.6
20190626002608 97 207 3.0 6.0 0.00 0.00 0.00 9 1010.6
20190626002109 97 142 2.0 5.0 0.00 0.00 0.00 9 1010.6
20190626001608 97 209 9.0 9.0 0.00 0.00 0.00 9 1010.6
20190626001108 97 208 2.0 8.0 0.00 0.00 0.00 9 1010.6
20190626000608 97 160 2.0 6.0 0.00 0.00 0.00 9 1010.6
20190626000107 97 217 4.0 6.0 0.00 0.00 0.00 9 1010.6
20190625235607 97 211 2.0 9.0 0.00 0.00 0.00 8 1010.6
20190625235109 98 183 5.0 12.0 0.00 0.00 0.00 8 1010.6
20190625234608 98 255 6.0 12.0 0.00 0.00 0.00 8 1010.6
20190625234108 98 150 2.0 3.0 0.00 0.00 0.00 8 1010.6
20190625233607 98 245 2.0 3.0 0.00 0.00 0.00 9 1010.6
20190625233107 98 209 1.0 10.0 0.00 0.00 0.00 8 1010.6
20190625232608 98 232 3.0 16.0 0.00 0.00 0.00 8 1010.6
20190625232109 98 230 5.0 10.0 0.00 0.00 0.00 8 1010.6
20190625231607 99 209 3.0 9.0 0.00 0.00 0.00 8 1010.6
20190625231107 98 170 0.0 3.0 0.00 0.00 0.00 9 1010.6
20190625230608 98 356 1.0 2.0 0.00 0.00 0.00 8 1010.6
20190625230108 98 107 2.0 3.0 0.00 0.00 0.00 8 1010.6
20190625225607 98 181 3.0 6.0 0.00 0.00 0.00 8 1010.6
20190625225109 98 205 1.0 7.0 0.00 0.00 0.00 9 1010.6
20190625224608 98 224 1.0 7.0 0.00 0.00 0.00 8 1010.6
20190625224107 98 231 7.0 8.0 0.00 0.00 0.00 8 1010.6
20190625223607 97 215 3.0 3.0 0.00 0.00 0.00 8 1010.6
20190625223107 97 230 5.0 8.0 0.00 0.00 0.00 8 1010.6
20190625222607 97 209 4.0 7.0 0.00 0.00 0.00 8 1010.6
20190625222109 97 143 1.0 3.0 0.00 0.00 0.00 8 1010.6
20190625221607 97 327 2.0 2.0 0.00 0.00 0.00 8 1010.6
20190625221108 97 216 5.0 10.0 0.00 0.00 0.00 8 1010.6
20190625220607 97 190 5.0 8.0 0.00 0.00 0.00 8 1010.6
20190625220107 97 213 5.0 10.0 0.00 0.00 0.00 8 1010.6
20190625215608 98 220 5.0 10.0 0.00 0.00 0.00 8 1010.6
20190625215108 98 213 5.0 8.0 0.00 0.00 0.00 8 1010.6
20190625214608 98 250 7.0 9.0 0.00 0.00 0.00 8 1010.6
20190625214107 98 164 5.0 12.0 0.00 0.00 0.00 8 1010.6
20190625213607 98 204 4.0 8.0 0.00 0.00 0.00 8 1010.6
20190625213107 98 176 4.0 12.0 0.00 0.00 0.00 8 1010.6
20190625212608 99 227 10.0 12.0 0.00 0.00 0.00 7 1010.6
20190625212108 99 186 5.0 10.0 0.00 0.00 0.00 7 1010.6
20190625211607 100 197 3.0 8.0 0.00 0.00 0.00 7 1010.6
20190625211107 100 214 3.0 9.0 0.00 0.00 0.00 7 1010.6
20190625210607 100 207 5.0 6.0 0.00 0.00 0.00 7 1010.6
20190625210108 100 165 3.0 9.0 0.00 0.00 0.00 7 1010.6
20190625205608 100 212 7.0 13.0 0.00 0.00 0.00 7 1010.6
20190625205109 100 212 3.0 7.0 0.00 0.00 0.00 7 1010.6
20190625204607 99 164 0.0 6.0 0.00 0.00 0.00 8 1010.6
20190625204107 99 158 1.0 6.0 0.00 0.00 0.00 8 1010.6
20190625203607 99 168 2.0 3.0 0.00 0.00 0.00 7 1010.6
20190625203107 99 205 4.0 7.0 0.00 0.00 0.00 7 1010.6
20190625202607 99 206 4.0 8.0 0.00 0.00 0.00 8 1010.6
20190625202108 98 216 1.0 3.0 0.00 0.00 0.00 8 1010.6
20190625201607 98 206 4.0 6.0 0.00 0.00 0.00 8 1010.6
20190625201107 98 212 6.0 8.0 0.00 0.00 0.00 8 1010.6
20190625200607 99 207 2.0 3.0 0.00 0.00 0.00 7 1010.6
20190625200108 98 217 1.0 6.0 0.00 0.00 0.00 8 1010.6
20190625195607 97 166 6.0 10.0 0.00 0.00 0.00 8 1010.6
20190625195109 97 219 2.0 6.0 0.00 0.00 0.00 8 1010.6
20190625194607 97 199 5.0 7.0 0.00 0.00 0.00 9 1010.6
20190625194107 97 186 4.0 8.0 0.00 0.00 0.00 8 1010.6
20190625193607 98 213 3.0 3.0 0.00 0.00 0.00 8 1010.6
20190625193107 97 305 1.0 3.0 0.00 0.00 0.00 9 1010.6
20190625192607 97 136 2.0 7.0 0.00 0.00 0.00 9 1010.6
20190625192109 97 232 5.0 7.0 0.00 0.00 0.00 9 1010.6
20190625191607 97 213 4.0 6.0 0.00 0.00 0.00 9 1010.6
20190625191106 97 160 3.0 5.0 0.00 0.00 0.00 9 1010.6
20190625190607 97 209 2.0 7.0 0.00 0.00 0.00 10 1010.6
20190625190107 96 177 2.0 12.0 0.00 0.00 0.00 10 1010.6
20190625185606 97 120 2.0 3.0 0.00 0.00 0.00 10 1010.6
20190625185108 97 185 2.0 5.0 0.00 0.00 0.00 9 1010.6
20190625184607 96 21 0.0 2.0 0.00 0.00 0.00 10 1010.6
20190625184107 96 302 2.0 3.0 0.00 0.00 0.00 10 1010.6
20190625183607 95 229 3.0 7.0 0.00 0.00 0.00 10 1010.6
20190625183106 95 212 2.0 6.0 0.00 0.00 0.00 10 1010.6
20190625182606 95 236 4.0 7.0 0.00 0.00 0.00 10 1010.6
20190625182108 94 199 2.0 7.0 0.00 0.00 0.00 10 1010.6
20190625181607 95 194 2.0 5.0 0.00 0.00 0.00 10 1010.6
20190625181106 94 202 4.0 6.0 0.00 0.00 0.00 10 1010.6
20190625180606 95 89 1.0 3.0 0.00 0.00 0.00 10 1010.6
20190625180107 95 162 3.0 5.0 0.00 0.00 0.00 10 1010.6
20190625175606 94 170 3.0 8.0 0.00 0.00 0.00 11 1010.6
20190625175108 94 99 2.0 6.0 0.00 0.00 0.00 10 1010.6
20190625174607 93 176 1.0 6.0 0.00 0.00 0.00 11 1010.6
20190625174107 93 183 3.0 7.0 0.00 0.00 0.00 10 1010.6
20190625173606 92 139 4.0 7.0 0.00 0.00 0.00 11 1010.6
20190625173106 93 187 2.0 5.0 0.00 0.00 0.00 11 1010.6
20190625172606 92 160 2.0 6.0 0.00 0.00 0.00 11 1010.6
20190625172108 92 184 3.0 8.0 0.00 0.00 0.00 11 1010.6
20190625171607 92 188 2.0 5.0 0.00 0.00 0.00 12 1010.6
20190625171106 91 203 3.0 9.0 0.00 0.00 0.00 11 1010.6
20190625170606 92 172 3.0 6.0 0.00 0.00 0.00 11 1010.6
20190625170107 92 161 3.0 7.0 0.00 0.00 0.00 11 1010.6
20190625165606 91 172 1.0 3.0 0.00 0.00 0.00 11 1010.6
20190625165108 92 163 3.0 6.0 0.00 0.00 0.00 11 1010.6
20190625164606 91 150 3.0 3.0 0.00 0.00 0.00 12 1010.6
20190625164107 91 210 2.0 5.0 0.00 0.00 0.00 12 1010.6
20190625163606 90 225 1.0 5.0 0.00 0.00 0.00 11 1010.6
20190625163106 90 191 2.0 3.0 0.00 0.00 0.00 11 1010.6
20190625162606 90 172 3.0 6.0 0.00 0.00 0.00 11 1010.6
20190625162107 89 137 3.0 8.0 0.00 0.00 0.00 11 1010.6
20190625161606 89 168 2.0 3.0 0.00 0.00 0.00 12 1010.6
20190625161106 89 162 2.0 6.0 0.00 0.00 0.00 12 1010.6
20190625160606 89 209 2.0 3.0 0.00 0.00 0.00 12 1010.6
20190625160107 88 201 1.0 3.0 0.00 0.00 0.00 12 1010.6
20190625155606 88 142 2.0 3.0 0.00 0.00 0.00 12 1010.6
20190625155108 87 145 2.0 3.0 0.00 0.00 0.00 13 1010.6
20190625154606 87 162 2.0 6.0 0.00 0.00 0.00 13 1010.6
20190625154106 87 141 3.0 5.0 0.00 0.00 0.00 13 1010.6
20190625153606 87 150 3.0 5.0 0.00 0.00 0.00 13 1010.6
20190625153106 86 156 2.0 5.0 0.00 0.00 0.00 14 1010.6
20190625152606 86 150 2.0 6.0 0.00 0.00 0.00 14 1010.6
20190625152108 87 139 3.0 3.0 0.00 0.00 0.00 14 1010.6
20190625151606 87 140 3.0 5.0 0.00 0.00 0.00 14 1010.6
20190625151106 87 158 1.0 3.0 0.00 0.00 0.00 14 1010.6
20190625150607 86 152 1.0 2.0 0.00 0.00 0.00 14 1010.6
20190625150107 87 140 0.0 2.0 0.00 0.00 0.00 14 1010.6
20190625145607 86 142 2.0 2.0 0.00 0.00 0.00 14 1010.6
20190625145108 86 139 1.0 2.0 0.00 0.00 0.00 14 1010.6
20190625144606 86 159 1.0 2.0 0.00 0.00 0.00 14 1010.6
20190625144107 85 195 0.0 2.0 0.00 0.00 0.00 15 1010.6
20190625143606 84 201 1.0 2.0 0.00 0.00 0.00 15 1010.6
20190625143106 84 159 1.0 2.0 0.00 0.00 0.00 15 1010.6
20190625142606 85 118 1.0 2.0 0.00 0.00 0.00 15 1010.6
20190625142107 85 147 1.0 1.0 0.00 0.00 0.00 14 1010.6
20190625141605 84 13 0.0 0.0 0.00 0.00 0.00 12 1010.6
20190625141106 82 13 1.0 1.0 0.00 0.00 0.00 12 1010.6
20190625140606 81 18 0.0 1.0 0.00 0.00 0.00 12 1010.6
20190625140106 80 5 1.0 1.0 0.00 0.00 0.00 13 1010.6
20190625135606 80 4 1.0 2.0 0.00 0.00 0.00 13 1010.6
20190625135107 79 12 1.0 1.0 0.00 0.00 0.00 14 1010.6
20190625134605 78 8 1.0 2.0 0.00 0.00 0.00 13 1010.6
20190625134107 78 358 3.0 3.0 0.00 0.00 0.00 13 1010.6
20190625133606 77 345 3.0 3.0 0.00 0.00 0.00 13 1010.6
20190625133106 77 2 2.0 3.0 0.00 0.00 0.00 13 1010.6
20190625132606 76 11 1.0 2.0 0.00 0.00 0.00 13 1010.6
20190625132107 76 12 2.0 3.0 0.00 0.00 0.00 13 1010.6
20190625131605 75 1 2.0 3.0 0.00 0.00 0.00 13 1010.6
20190625131106 74 11 2.0 5.0 0.00 0.00 0.00 14 1010.6
20190625130606 73 21 2.0 3.0 0.00 0.00 0.00 14 1010.6
20190625130106 73 5 2.0 3.0 0.00 0.00 0.00 14 1010.6
20190625125606 73 16 2.0 3.0 0.00 0.00 0.00 14 1010.6
20190625125107 72 19 2.0 3.0 0.00 0.00 0.00 14 1010.6
20190625124606 72 23 2.0 3.0 0.00 0.00 0.00 14 1010.6
20190625124106 73 17 2.0 5.0 0.00 0.00 0.00 14 1010.6
20190625123606 73 357 2.0 3.0 0.00 0.00 0.00 14 1010.6
20190625123106 73 3 3.0 3.0 0.00 0.00 0.00 14 1010.6
20190625122606 73 10 3.0 3.0 0.00 0.00 0.00 14 1010.6
20190625122107 73 7 2.0 3.0 0.00 0.00 0.00 14 1010.6
20190625121605 73 2 2.0 3.0 0.00 0.00 0.00 14 1010.6
20190625121106 73 359 2.0 3.0 0.00 0.00 0.00 14 1010.6
20190625120606 74 8 2.0 3.0 0.00 0.00 0.00 13 1010.6
20190625120106 74 14 2.0 5.0 0.00 0.00 0.00 13 1010.6
20190625115606 74 8 3.0 5.0 0.00 0.00 0.00 13 1010.6
20190625115107 74 18 2.0 3.0 0.00 0.00 0.00 13 1010.6
20190625114606 74 18 3.0 3.0 0.00 0.00 0.00 13 1010.6
20190625114106 74 346 2.0 3.0 0.00 0.00 0.00 13 1010.6
20190625113605 74 353 2.0 2.0 0.00 0.00 0.00 13 1010.6
20190625113106 75 9 2.0 3.0 0.00 0.00 0.00 13 1010.6
20190625112605 75 19 2.0 3.0 0.00 0.00 0.00 13 1010.6
20190625112107 75 6 2.0 2.0 0.00 0.00 0.00 13 1010.6
20190625111606 75 12 3.0 3.0 0.00 0.00 0.00 13 1010.6
20190625111106 75 13 1.0 3.0 0.00 0.00 0.00 12 1010.6
20190625110605 75 356 4.0 6.0 0.00 0.00 0.00 13 1010.6
20190625110105 75 18 2.0 3.0 0.00 0.00 0.00 13 1010.6
20190625105605 75 20 1.0 3.0 0.00 0.00 0.00 13 1010.6
20190625105106 75 20 2.0 3.0 0.00 0.00 0.00 13 1010.6
20190625104606 75 14 1.0 2.0 0.00 0.00 0.00 13 1010.6
20190625104105 75 21 1.0 3.0 0.00 0.00 0.00 13 1010.6